SL-8 DEB, 1549

Orbit data source: Space-Track

SL-8 DEB, 1549 is space debris in LEO originally from a launch on Mon, 15 Mar 1965 UTC launched from the Tyuratam Missile And Space Complex (TTMTR). Debris objects in space refer to the collection of defunct objects orbiting the Earth. Examples of debris include non-operational satellites, rocket bodies, and fragments generated from explosions, collisions, or faulty payload assembly.

Loading next visibility...
Identifier
1549, 1965-020CV
Orbit
LEO
Country
Flag of CISCIS
Related business
Manufacturer
Unknown
Mission
Spacecraft
Bus & Motor
Unknown
Mass
Unknown
Launch date (UTC)
1965-03-15 (61 years ago)
Launch vehicle
Unknown
Launch site
Tyuratam Missile And Space Complex (TTMTR)
Object type
Payload
Rocket body
Debris
Shape & HBR
Unknown shape, 0.1 m
Radar Cross Section
Medium (>0.1 m² and <1 m²)

Expand to show TLE details & history
Last TLE update: 18 hours ago

TLE from 18 hours ago
0 SL-8 DEB
1 01549U 65020CV  26036.10357279  .00000267  00000-0  48966-3 0  9994
2 01549  56.1699 293.3475 0837306 281.3377  69.4693 12.64470701798236
Epoch: 2026-02-05T02:29Z
TLE epoch observation values (Epoch: 2026-02-05T02:29:08.689Z)
Latitude
0.00002°
Longitude
120.80071°
Altitude
1,226.922 km
Speed
7.324 km/s
True Right ascension
19h 33m 23s
True Declination
0° 00' 00"
Sunlit
Object was in daylight at epoch
Visualization orbit readout
Latitude
Unknown
Longitude
Unknown
Altitude
Unknown
Speed
Unknown
Apparent Right ascension
Unknown
Apparent Declination
Unknown
Sunlit
N/A
Visualization observer readout
Local Sidereal Time
22:07:43
Azimuth
Unknown
Elevation
Unknown
Doppler factor
Unknown
Orbital elements
Apogee altitude
2,055.982 km
Perigee altitude
752.718 km
Semi-major axis
7,782.487 km
Eccentricity
0.08373
Inclination
56.1699°
RAAN
293.3475°
Arg. of periapsis
281.3377°
True anomaly
78.75554°
Mean anomaly
69.4693°
Eccentric anomaly
74.08277°
Mean motion
3.1613 °/min
Orbital period
113.88 mins
BSTAR
0.00048966
Loading maneuver chart data...
Computing Atmospheric mass density...
Loading historical data...
Loading historical data...
Loading historical data...
Loading historical data...
Loading historical data...
Loading historical data...
Loading historical data...

Documentation

Showing up to 5 results
|